FW6835 Weather Reports


Display with metric or nautical units.
time (UTC)temp
F
wind
direction
speed
MPH
gust
MPH
rain 1hr
in
rain 24hr
in
rain mn
in
humidity
%
barometer
mb
20260901220059 58 117 0.0 0.0 0.00 0.02 0.00 84 1021.1
20260901215552 58 117 0.0 0.0 0.00 0.02 0.02 84 1021.0
20260901215052 58 117 0.0 0.0 0.00 0.02 0.02 84 1021.1
20260901214552 58 117 0.0 0.0 0.00 0.02 0.02 85 1021.1
20260901214052 58 117 0.0 0.0 0.00 0.02 0.02 84 1021.2
20260901213553 58 117 0.0 0.0 0.00 0.02 0.02 84 1021.2
20260901213052 58 117 0.0 0.0 0.00 0.02 0.02 84 1021.2
20260901212552 58 117 0.0 0.0 0.00 0.02 0.02 83 1021.0
20260901212052 58 117 0.0 0.0 0.00 0.02 0.02 83 1021.3
20260901211555 58 117 0.0 0.0 0.00 0.02 0.02 83 1021.2
20260901211051 58 117 0.0 0.0 0.00 0.02 0.02 83 1021.3
20260901210551 58 117 0.0 0.0 0.00 0.02 0.02 84 1021.4
20260901210058 58 117 0.0 0.0 0.00 0.02 0.02 84 1021.2
20260901205554 58 117 0.0 0.0 0.00 0.02 0.02 85 1021.2
20260901205049 58 117 0.0 0.0 0.00 0.02 0.02 85 1021.2
20260901204550 57 117 0.0 0.0 0.00 0.02 0.02 85 1021.3
20260901204050 57 117 0.0 0.0 0.00 0.02 0.02 86 1021.2
20260901203549 57 117 0.0 0.0 0.00 0.02 0.02 86 1021.2
20260901203052 57 117 0.0 0.0 0.00 0.02 0.02 86 1021.2
20260901202548 57 117 0.0 0.0 0.00 0.02 0.02 86 1021.2
20260901202049 57 117 0.0 0.0 0.00 0.02 0.02 86 1021.1
20260901201550 57 117 0.0 0.0 0.00 0.02 0.02 86 1021.1
20260901201048 57 117 0.0 0.0 0.00 0.02 0.02 85 1021.1
20260901200547 57 117 0.0 0.0 0.00 0.02 0.02 85 1021.0
20260901200058 57 117 0.0 0.0 0.00 0.02 0.02 85 1021.0
20260901195547 57 117 0.0 0.0 0.00 0.02 0.02 85 1021.1
20260901195047 57 117 0.0 0.0 0.00 0.02 0.02 85 1021.1
20260901194601 57 117 0.0 0.0 0.00 0.02 0.02 85 1021.0
20260901194046 58 117 0.0 1.0 0.00 0.02 0.02 85 1021.1
20260901193547 58 117 0.0 1.0 0.00 0.02 0.02 86 1021.0
20260901193046 58 117 0.0 0.0 0.00 0.02 0.02 85 1021.0
20260901192545 58 117 0.0 0.0 0.00 0.02 0.02 85 1021.0
20260901192051 58 117 0.0 0.0 0.00 0.02 0.02 86 1020.9
20260901191546 58 117 0.0 0.0 0.00 0.02 0.02 86 1021.0
20260901191045 58 117 0.0 0.0 0.00 0.02 0.02 85 1020.9
20260901190546 58 117 0.0 0.0 0.00 0.02 0.02 85 1020.9
20260901185546 58 117 0.0 0.0 0.00 0.02 0.02 84 1021.0
20260901185048 58 117 0.0 2.0 0.00 0.02 0.02 84 1020.9
20260901184544 58 117 0.0 2.0 0.00 0.02 0.02 84 1020.8
20260901184044 58 117 1.0 2.0 0.00 0.02 0.02 83 1020.8
20260901183548 59 117 0.0 2.0 0.00 0.02 0.02 83 1020.8
20260901183048 59 117 1.0 2.0 0.00 0.02 0.02 83 1020.7
20260901182544 59 117 1.0 2.0 0.00 0.02 0.02 83 1020.6
20260901182044 59 117 1.0 2.0 0.00 0.02 0.02 83 1020.6
20260901181550 59 117 1.0 2.0 0.00 0.02 0.02 82 1020.5
20260901181043 59 117 1.0 2.0 0.00 0.02 0.02 82 1020.5
20260901180543 59 117 0.0 2.0 0.00 0.02 0.02 81 1020.4
20260901180043 60 117 0.0 0.0 0.00 0.02 0.02 82 1020.3
20260901175543 60 117 0.0 0.0 0.00 0.02 0.02 82 1020.3
20260901175042 60 117 0.0 0.0 0.00 0.02 0.02 81 1020.3
20260901174542 60 117 0.0 2.0 0.00 0.02 0.02 81 1020.2
20260901174045 61 117 0.0 2.0 0.00 0.02 0.02 81 1020.2
20260901173541 61 117 0.0 0.0 0.00 0.02 0.02 80 1020.0
20260901173102 62 117 0.0 2.0 0.00 0.02 0.02 79 1020.3
20260901172541 62 117 1.0 4.0 0.00 0.02 0.02 79 1020.1
20260901172044 63 121 1.0 4.0 0.00 0.02 0.02 78 1020.1
20260901171541 64 119 0.0 2.0 0.00 0.02 0.02 76 1020.2
20260901171047 65 119 0.0 3.0 0.00 0.02 0.02 75 1020.2
20260901170541 66 119 1.0 3.0 0.00 0.02 0.02 72 1020.2
20260901170041 66 214 0.0 2.0 0.00 0.02 0.02 72 1020.3
20260901165540 66 216 0.0 1.0 0.00 0.02 0.02 74 1020.2
20260901165041 67 216 0.0 2.0 0.00 0.02 0.02 74 1020.2
20260901164541 67 214 0.0 3.0 0.00 0.02 0.02 73 1020.2
20260901164040 67 214 1.0 3.0 0.00 0.02 0.02 72 1020.1
20260901163542 67 240 0.0 2.0 0.00 0.02 0.02 74 1020.2
20260901163040 66 241 0.0 2.0 0.00 0.02 0.02 76 1020.1
20260901162539 66 241 0.0 0.0 0.00 0.02 0.02 76 1020.2
20260901162039 66 241 0.0 0.0 0.00 0.02 0.02 77 1020.2
20260901161539 66 241 0.0 2.0 0.00 0.02 0.02 75 1020.0
20260901161039 66 241 0.0 5.0 0.00 0.02 0.02 74 1020.1
20260901160539 67 241 2.0 5.0 0.00 0.02 0.02 71 1020.0
20260901160043 67 267 1.0 4.0 0.00 0.02 0.02 72 1020.0
20260901155538 67 206 0.0 3.0 0.00 0.02 0.02 75 1020.0
20260901155038 66 227 0.0 3.0 0.00 0.02 0.02 75 1020.1
20260901154541 66 255 0.0 2.0 0.00 0.02 0.02 73 1020.1
20260901154038 66 255 0.0 1.0 0.00 0.02 0.02 74 1020.1
20260901153537 66 257 0.0 0.0 0.00 0.02 0.02 73 1020.1
20260901153041 66 257 0.0 4.0 0.00 0.02 0.02 73 1020.1
20260901152537 66 242 0.0 4.0 0.00 0.02 0.02 72 1020.1
20260901152037 67 208 2.0 9.0 0.00 0.02 0.02 70 1020.2
20260901151537 68 247 3.0 9.0 0.00 0.02 0.02 69 1020.1
20260901151037 68 265 0.0 5.0 0.00 0.02 0.02 70 1020.2
20260901150536 68 215 1.0 8.0 0.00 0.02 0.02 71 1020.1
20260901150036 68 250 2.0 8.0 0.00 0.02 0.02 70 1020.2
20260901145536 67 262 2.0 7.0 0.00 0.02 0.02 71 1020.2
20260901145035 66 178 3.0 7.0 0.00 0.02 0.02 73 1020.4
20260901144538 66 62 0.0 4.0 0.00 0.02 0.02 75 1020.4
20260901144035 65 214 0.0 3.0 0.00 0.02 0.02 79 1020.3
20260901143535 65 153 1.0 3.0 0.00 0.02 0.02 75 1020.2
20260901143041 65 229 0.0 2.0 0.00 0.02 0.02 77 1020.3
20260901142535 65 229 0.0 2.0 0.00 0.02 0.02 76 1020.2
20260901142034 65 229 0.0 3.0 0.00 0.02 0.02 74 1020.3
20260901141543 66 220 0.0 3.0 0.00 0.02 0.02 72 1020.4
20260901141037 66 236 0.0 7.0 0.01 0.02 0.02 74 1020.4
20260901140535 67 236 2.0 7.0 0.01 0.02 0.02 70 1020.3
20260901140036 67 237 0.0 5.0 0.01 0.02 0.02 72 1020.3
20260901135534 67 209 1.0 5.0 0.01 0.02 0.02 70 1020.3
20260901135034 67 224 0.0 5.0 0.01 0.02 0.02 70 1020.4
20260901134536 67 239 1.0 5.0 0.01 0.02 0.02 69 1020.4
20260901134033 67 193 0.0 6.0 0.01 0.02 0.02 76 1020.5
20260901133533 66 240 2.0 10.0 0.01 0.02 0.02 72 1020.5
20260901133040 66 229 3.0 10.0 0.01 0.02 0.02 70 1020.5
20260901132537 66 191 2.0 10.0 0.01 0.02 0.02 70 1020.6
20260901132033 66 216 2.0 10.0 0.01 0.02 0.02 71 1020.7
20260901131535 66 234 1.0 8.0 0.01 0.02 0.02 74 1020.6
20260901131034 66 189 3.0 8.0 0.00 0.01 0.01 71 1020.7
20260901130532 67 173 1.0 5.0 0.00 0.01 0.01 70 1020.6
20260901130031 67 192 2.0 8.0 0.00 0.01 0.01 68 1020.6
20260901125530 68 229 2.0 10.0 0.00 0.01 0.01 70 1020.5
20260901125029 67 230 2.0 11.0 0.00 0.01 0.01 72 1020.6
20260901124528 67 263 4.0 9.0 0.00 0.01 0.01 72 1020.8
20260901124026 66 239 2.0 8.0 0.00 0.01 0.01 74 1020.7
20260901123525 65 234 2.0 7.0 0.00 0.01 0.01 76 1020.8
20260901123024 64 236 1.0 7.0 0.00 0.01 0.01 76 1020.7
20260901122524 64 242 1.0 7.0 0.00 0.01 0.01 76 1020.8
20260901122023 64 273 2.0 7.0 0.00 0.01 0.01 75 1020.8
20260901121524 64 284 2.0 6.0 0.00 0.01 0.01 74 1020.9
20260901121024 64 238 3.0 10.0 0.00 0.01 0.01 75 1020.9
20260901120526 63 259 3.0 10.0 0.00 0.01 0.01 75 1020.8
20260901120023 64 279 0.0 5.0 0.00 0.01 0.01 77 1020.9
20260901115525 64 91 2.0 7.0 0.00 0.01 0.01 75 1020.9
20260901115023 64 271 3.0 7.0 0.00 0.01 0.01 76 1021.0
20260901114522 63 201 2.0 7.0 0.00 0.01 0.01 79 1021.0
20260901114024 62 227 2.0 7.0 0.00 0.01 0.01 78 1020.9
20260901113521 62 196 2.0 8.0 0.00 0.01 0.01 76 1020.9
20260901113021 63 226 2.0 7.0 0.00 0.01 0.01 76 1020.9
20260901112520 63 170 3.0 8.0 0.00 0.01 0.01 75 1020.9
20260901112021 64 257 1.0 7.0 0.00 0.01 0.01 75 1020.8
20260901111520 64 181 3.0 9.0 0.00 0.01 0.01 76 1020.7
20260901111019 64 265 2.0 13.0 0.00 0.01 0.01 78 1020.7
20260901110518 64 217 5.0 13.0 0.00 0.01 0.01 75 1020.7
20260901110033 63 298 5.0 8.0 0.00 0.01 0.01 77 1020.7
20260901105517 63 286 3.0 12.0 0.00 0.01 0.01 76 1020.6
20260901105018 63 264 4.0 12.0 0.00 0.01 0.01 76 1020.6
20260901104516 63 255 3.0 8.0 0.00 0.01 0.01 78 1020.7
20260901104014 62 244 3.0 10.0 0.00 0.01 0.01 80 1020.7
20260901103514 62 247 2.0 11.0 0.00 0.01 0.01 82 1020.7
20260901103013 62 229 4.0 11.0 0.00 0.01 0.01 79 1020.7
20260901102513 62 230 3.0 9.0 0.00 0.01 0.01 78 1020.6
20260901102013 62 279 1.0 9.0 0.00 0.01 0.01 77 1020.6
20260901101512 63 307 2.0 10.0 0.00 0.01 0.01 78 1020.5
20260901101013 63 221 2.0 10.0 0.00 0.01 0.01 79 1020.5
20260901100511 62 298 3.0 12.0 0.00 0.01 0.01 79 1020.5
20260901100009 62 304 3.0 12.0 0.00 0.01 0.01 79 1020.5
20260901095508 62 253 5.0 10.0 0.00 0.01 0.01 78 1020.6
20260901095009 62 201 4.0 9.0 0.00 0.01 0.01 80 1020.5
20260901094507 61 230 2.0 6.0 0.00 0.01 0.01 82 1020.6
20260901094007 61 232 1.0 5.0 0.00 0.01 0.01 83 1020.5
20260901093507 61 209 1.0 10.0 0.00 0.01 0.01 81 1020.5
20260901093005 61 220 4.0 10.0 0.00 0.01 0.01 80 1020.5
20260901092505 61 196 1.0 8.0 0.00 0.01 0.01 82 1020.4
20260901092005 61 237 3.0 9.0 0.00 0.01 0.01 80 1020.3
20260901091504 61 196 3.0 9.0 0.00 0.01 0.01 81 1020.2
20260901091003 61 264 3.0 8.0 0.00 0.01 0.01 81 1020.3
20260901090503 61 219 2.0 9.0 0.00 0.01 0.01 82 1020.2
20260901090011 60 268 5.0 9.0 0.00 0.01 0.01 82 1020.2
20260901085504 60 263 3.0 7.0 0.00 0.01 0.01 84 1020.2
20260901085002 59 275 3.0 7.0 0.00 0.01 0.01 84 1020.2
20260901084501 59 190 1.0 10.0 0.00 0.01 0.01 86 1020.3
20260901084003 59 253 3.0 11.0 0.00 0.01 0.01 84 1020.1
20260901083501 59 240 2.0 8.0 0.00 0.01 0.01 85 1020.1
20260901083100 59 205 2.0 10.0 0.00 0.01 0.01 85 1019.9
20260901082601 59 311 5.0 11.0 0.00 0.01 0.01 84 1019.9
20260901082059 59 296 4.0 11.0 0.00 0.01 0.01 84 1019.8
20260901081613 59 315 4.0 11.0 0.00 0.01 0.01 86 1020.0
20260901081103 59 183 1.0 8.0 0.00 0.01 0.01 86 1019.6
20260901080559 59 171 3.0 8.0 0.00 0.01 0.01 86 1019.8
20260901075600 58 236 3.0 11.0 0.00 0.12 0.01 88 1019.7
20260901075057 58 244 3.0 7.0 0.00 0.12 0.01 89 1019.7
20260901074556 57 204 3.0 9.0 0.00 0.12 0.01 88 1019.6
20260901074055 57 253 2.0 9.0 0.00 0.12 0.01 89 1019.5
20260901073555 57 186 2.0 5.0 0.00 0.12 0.01 89 1019.5
20260901073056 57 252 1.0 7.0 0.00 0.12 0.01 90 1019.5
20260901072558 57 231 2.0 6.0 0.00 0.12 0.01 90 1019.3
20260901072055 57 193 2.0 6.0 0.00 0.12 0.01 90 1019.4
20260901071601 56 220 2.0 9.0 0.00 0.12 0.01 90 1019.3
20260901071053 56 237 3.0 8.0 0.00 0.12 0.01 90 1019.3
20260901070553 56 284 0.0 5.0 0.00 0.12 0.01 90 1019.3
20260901070100 56 268 1.0 7.0 0.00 0.12 0.01 90 1019.2
20260901065554 56 239 2.0 8.0 0.00 0.14 0.01 90 1019.2
20260901065053 56 247 3.0 7.0 0.00 0.14 0.01 91 1019.3
20260901064552 56 285 2.0 8.0 0.00 0.14 0.01 91 1019.2
20260901064051 56 198 2.0 6.0 0.01 0.14 0.01 91 1019.2
20260901063551 56 157 0.0 8.0 0.01 0.14 0.01 92 1019.0
20260901063050 55 236 2.0 8.0 0.01 0.14 0.01 92 1019.1
20260901062549 55 253 2.0 7.0 0.01 0.14 0.01 92 1019.1
20260901062050 55 239 2.0 7.0 0.01 0.14 0.01 92 1019.1
20260901061548 55 272 1.0 5.0 0.01 0.14 0.01 92 1019.0
20260901061047 55 248 2.0 7.0 0.01 0.14 0.01 92 1019.0
20260901060546 55 193 1.0 7.0 0.01 0.14 0.01 92 1019.0
20260901060044 55 200 3.0 7.0 0.01 0.14 0.01 92 1019.0
20260901055543 55 237 2.0 8.0 0.01 0.14 0.01 91 1018.8
20260901055043 55 240 2.0 8.0 0.01 0.14 0.01 91 1018.8
20260901054542 55 202 2.0 5.0 0.01 0.14 0.01 90 1018.8
20260901054042 56 215 2.0 9.0 0.00 0.13 0.00 89 1018.7
20260901053542 55 151 2.0 8.0 0.00 0.13 0.00 89 1018.7
20260901053046 55 235 2.0 6.0 0.00 0.13 0.00 89 1018.7
20260901052541 55 203 1.0 7.0 0.00 0.13 0.00 89 1018.7
20260901052040 55 193 3.0 8.0 0.00 0.13 0.00 89 1018.7
20260901051540 55 252 2.0 8.0 0.00 0.13 0.00 88 1018.6
20260901051038 55 196 2.0 9.0 0.00 0.13 0.00 88 1018.6
20260901050540 55 216 2.0 9.0 0.00 0.13 0.00 89 1018.5
20260901050036 55 251 1.0 5.0 0.00 0.13 0.00 89 1018.5
20260901045536 55 238 2.0 7.0 0.00 0.13 0.00 89 1018.5
20260901045035 55 244 2.0 7.0 0.00 0.13 0.00 89 1018.4
20260901044534 55 292 2.0 7.0 0.00 0.13 0.00 89 1018.4
20260901044036 55 261 3.0 6.0 0.00 0.13 0.00 89 1018.3
20260901043533 55 231 1.0 6.0 0.00 0.13 0.00 89 1018.4
20260901043032 55 267 2.0 8.0 0.00 0.13 0.00 89 1018.2
20260901042531 55 254 2.0 8.0 0.00 0.13 0.00 89 1018.3
20260901042031 55 242 2.0 5.0 0.00 0.13 0.00 89 1018.3
20260901041531 55 258 2.0 7.0 0.00 0.13 0.00 89 1018.3
20260901041031 55 227 2.0 7.0 0.00 0.13 0.00 89 1018.2
20260901040531 55 237 2.0 4.0 0.00 0.13 0.00 89 1018.1
20260901040031 55 212 0.0 6.0 0.00 0.13 0.00 89 1018.2
20260901035529 55 226 2.0 6.0 0.00 0.13 0.00 88 1018.3
20260901035029 55 215 1.0 9.0 0.00 0.13 0.00 88 1018.1
20260901034528 55 237 2.0 5.0 0.00 0.13 0.00 88 1018.1
20260901034028 55 249 1.0 9.0 0.00 0.13 0.00 88 1017.8
20260901033528 55 189 2.0 9.0 0.00 0.13 0.00 88 1017.9
20260901033043 55 234 4.0 8.0 0.00 0.13 0.00 88 1017.9
20260901032527 55 286 3.0 8.0 0.00 0.13 0.00 88 1017.9
20260901032027 55 240 1.0 7.0 0.00 0.13 0.00 88 1017.8
20260901031527 55 225 2.0 6.0 0.00 0.13 0.00 88 1017.8
20260901031025 54 251 1.0 6.0 0.00 0.13 0.00 88 1017.9
20260901030530 54 172 3.0 7.0 0.00 0.13 0.00 88 1017.8
20260901030026 55 216 2.0 7.0 0.00 0.13 0.00 88 1017.8
20260901025523 55 269 2.0 7.0 0.00 0.13 0.00 88 1017.8
20260901025023 55 285 1.0 7.0 0.00 0.13 0.00 88 1017.7
20260901024527 55 270 2.0 8.0 0.00 0.13 0.00 87 1017.7
20260901024022 55 269 3.0 8.0 0.00 0.13 0.00 87 1017.7
20260901023521 55 274 2.0 5.0 0.00 0.13 0.00 87 1017.7
20260901023021 55 235 2.0 4.0 0.00 0.13 0.00 87 1017.9
20260901022520 55 206 2.0 4.0 0.00 0.13 0.00 87 1017.8
20260901022021 55 232 2.0 7.0 0.00 0.13 0.00 86 1017.8
20260901021521 55 251 3.0 7.0 0.00 0.13 0.00 86 1017.7
20260901021021 56 175 2.0 7.0 0.00 0.13 0.00 86 1017.7
20260901020519 56 188 2.0 7.0 0.00 0.13 0.00 86 1017.7
20260901020018 55 229 3.0 11.0 0.00 0.13 0.00 86 1017.8
20260901015519 55 257 1.0 7.0 0.00 0.13 0.00 86 1017.6
20260901015017 55 200 2.0 9.0 0.00 0.13 0.00 86 1017.7
20260901014517 56 254 3.0 9.0 0.00 0.13 0.00 86 1017.7
20260901014017 56 262 2.0 8.0 0.00 0.13 0.00 86 1017.7
20260901013517 56 241 2.0 8.0 0.00 0.13 0.00 86 1017.6
20260901013017 56 244 1.0 7.0 0.00 0.13 0.00 85 1017.7
20260901012516 56 245 2.0 7.0 0.00 0.13 0.00 85 1017.7
20260901012015 56 259 1.0 9.0 0.00 0.13 0.00 85 1017.7
20260901011515 56 271 3.0 9.0 0.00 0.13 0.00 84 1017.7
20260901011016 56 213 1.0 7.0 0.00 0.13 0.00 84 1017.7
20260901010514 56 173 2.0 6.0 0.00 0.13 0.00 84 1017.7
20260901010014 56 242 1.0 9.0 0.00 0.13 0.00 84 1017.7
20260901005513 56 187 1.0 6.0 0.00 0.13 0.00 83 1017.7
20260901005016 56 182 1.0 5.0 0.00 0.13 0.00 83 1017.6
20260901004511 56 211 2.0 5.0 0.00 0.13 0.00 82 1017.5
20260901004013 56 250 0.0 7.0 0.00 0.13 0.00 82 1017.5
20260901003510 56 207 1.0 7.0 0.00 0.13 0.00 81 1017.5
20260901003012 57 288 1.0 7.0 0.00 0.13 0.00 81 1017.4
20260901002510 57 232 0.0 4.0 0.00 0.13 0.00 80 1017.4
20260901002006 57 271 0.0 6.0 0.00 0.13 0.00 79 1017.3
20260901001514 57 245 2.0 6.0 0.00 0.13 0.00 79 1017.3
20260901001004 58 259 2.0 6.0 0.00 0.13 0.00 78 1017.4
20260901000503 58 246 1.0 10.0 0.00 0.13 0.00 77 1017.4
20260901000003 58 267 1.0 7.0 0.00 0.13 0.00 77 1017.3
20260831235501 58 282 3.0 7.0 0.00 0.13 0.00 77 1017.3
20260831234604 59 216 4.0 11.0 0.00 0.13 0.00 77 1017.4
20260831234059 59 249 2.0 9.0 0.00 0.13 0.00 78 1017.4
20260831233600 59 221 3.0 9.0 0.00 0.13 0.00 77 1017.3
20260831233101 59 246 3.0 8.0 0.00 0.13 0.00 78 1017.4
20260831232557 59 176 1.0 10.0 0.00 0.13 0.00 79 1017.2
20260831232057 59 287 2.0 10.0 0.00 0.13 0.00 79 1017.2
20260831231556 59 286 2.0 9.0 0.00 0.13 0.00 79 1017.3
20260831231100 59 305 2.0 8.0 0.00 0.13 0.00 79 1017.3
20260831230555 60 205 2.0 7.0 0.00 0.13 0.00 79 1017.0
20260831225554 60 239 2.0 6.0 0.00 0.13 0.00 80 1016.9
20260831225053 60 260 3.0 6.0 0.00 0.13 0.00 79 1017.0
20260831224552 60 236 1.0 6.0 0.00 0.13 0.00 79 1016.8
20260831224052 61 256 0.0 6.0 0.00 0.13 0.00 79 1016.9
20260831223551 61 206 2.0 7.0 0.00 0.13 0.00 78 1016.9
20260831223050 61 221 2.0 7.0 0.00 0.13 0.00 78 1016.8
20260831222548 61 286 3.0 7.0 0.00 0.13 0.00 77 1016.8
20260831222049 61 261 2.0 7.0 0.00 0.13 0.00 77 1016.5
20260831221549 61 237 2.0 7.0 0.00 0.13 0.00 77 1016.6
20260831221048 61 234 2.0 8.0 0.00 0.13 0.00 78 1016.6
20260831220547 61 269 0.0 7.0 0.00 0.13 0.00 78 1016.5